Stations météo

réclame
Mon MeteoGroup
Pertusato, France (7770): Température de l'air & dewpoint: 12.01.2020 02:00:00 - 18.01.2020 02:00:00 (CET)Pertusato, France (7770): Vitesse du vent & gusts: 12.01.2020 02:00:00 - 18.01.2020 02:00:00 (CET)Pertusato, France (7770): Direction du vent: 12.01.2020 02:00:00 - 18.01.2020 02:00:00 (CET)Pertusato, France (7770): reduced air pressure: 12.01.2020 02:00:00 - 18.01.2020 02:00:00 (CET)Pertusato, France (7770): visibility: 12.01.2020 02:00:00 - 18.01.2020 02:00:00 (CET)Pertusato, France (7770): Quantités de précipitations: 12.01.2020 02:00:00 - 18.01.2020 02:00:00 (CET)
Date & Time tt [°C] td [°C] ff [km/h] ff [knt] fx [km/h] fx [knt] dd ppp [hPa] vv [km] rr [mm]
18.01.2020 02:00:00 11,9 8,2 66 36 98 53 W 1020,8 - 0,0
18.01.2020 01:00:00 11,6 9,0 56 30 85 46 W 1022,3 - 0,0
18.01.2020 00:00:00 11,3 9,2 42 23 68 37 WNW 1023,1 - 0,4
17.01.2020 23:00:00 12,0 10,6 21 12 67 36 WNW 1023,6 - 2,2
17.01.2020 22:00:00 13,0 10,9 25 13 72 39 WSW 1023,5 - 0,0
17.01.2020 21:00:00 13,4 10,9 23 12 62 34 WSW 1024,4 - 0,0
17.01.2020 20:00:00 13,3 10,5 15 8 47 26 W 1025,1 - 0,0
17.01.2020 19:00:00 13,3 10,1 11 6 40 22 NNW 1025,7 15 0,0
17.01.2020 18:00:00 13,0 9,4 27 14 39 21 W 1025,8 - 0,0
17.01.2020 17:00:00 13,2 8,9 22 12 42 23 W 1025,9 - 0,0
17.01.2020 16:00:00 13,7 8,7 13 7 42 23 WNW 1025,8 - 0,0
17.01.2020 15:00:00 13,8 8,2 18 10 51 28 W 1026,0 - 0,0
17.01.2020 14:00:00 13,5 8,1 20 11 54 29 W 1026,2 - 0,0
17.01.2020 13:00:00 13,1 7,7 14 8 37 20 WNW 1026,6 - 0,0
17.01.2020 12:00:00 13,5 8,1 12 6 38 21 WNW 1027,4 - 0,0
17.01.2020 11:00:00 12,5 8,4 14 8 45 24 WNW 1028,2 - 0,0
17.01.2020 10:00:00 12,5 8,8 12 7 37 20 NW 1027,9 15 0,0
17.01.2020 09:00:00 12,2 8,5 11 6 39 21 NNW 1028,0 - 0,0
17.01.2020 08:00:00 12,1 8,6 12 7 38 21 NNW 1027,7 - 0,0
17.01.2020 07:00:00 12,1 9,3 11 6 39 21 NW 1027,7 - 0,0
17.01.2020 06:00:00 12,0 9,2 14 7 35 19 WNW 1027,5 - 0,0
17.01.2020 05:00:00 12,2 9,4 13 7 39 21 WNW 1027,6 - 0,0
17.01.2020 04:00:00 12,2 9,8 17 9 37 20 W 1027,9 12 0,0
17.01.2020 03:00:00 12,3 9,8 11 6 36 19 NW 1028,2 - 0,0
17.01.2020 02:00:00 12,6 7,9 13 7 28 15 W 1028,3 - 0,0
17.01.2020 01:00:00 12,4 9,0 12 7 27 15 W 1028,6 - 0,0
17.01.2020 00:00:00 12,4 9,0 11 6 17 9 W 1029,0 - 0,0
16.01.2020 23:00:00 12,2 9,4 5 3 14 8 NE 1029,3 - 0,0
16.01.2020 22:00:00 12,0 9,4 6 3 11 6 S 1029,5 15 0,0
16.01.2020 21:00:00 11,8 8,6 3 2 8 4 SE 1029,6 - 0,0
16.01.2020 20:00:00 11,0 8,0 6 3 7 4 SE 1029,8 - 0,0
16.01.2020 19:00:00 11,2 8,4 6 4 10 5 E 1029,8 - 0,0
16.01.2020 18:00:00 11,3 8,3 6 3 7 4 E 1029,6 - 0,0
16.01.2020 17:00:00 12,4 7,7 2 1 8 4 N 1029,2 - 0,0
16.01.2020 16:00:00 12,8 8,1 4 2 9 5 W 1029,3 25 0,0
16.01.2020 15:00:00 13,3 9,0 4 2 8 5 WSW 1029,5 - 0,0
16.01.2020 14:00:00 14,0 8,4 4 2 11 6 S 1029,6 - 0,0
16.01.2020 13:00:00 14,6 9,6 7 4 13 7 ESE 1030,0 15 0,0
16.01.2020 12:00:00 14,4 9,0 5 3 12 6 SSW 1030,6 - 0,0
16.01.2020 11:00:00 13,8 9,0 4 2 10 5 SSW 1031,2 - 0,0
16.01.2020 10:00:00 13,0 9,4 3 2 9 5 ENE 1031,1 15 0,0
16.01.2020 09:00:00 10,8 8,6 8 4 14 8 ENE 1030,8 - 0,0
16.01.2020 08:00:00 8,5 7,3 13 7 17 9 E 1030,6 - 0,0
16.01.2020 07:00:00 8,1 6,6 14 8 17 9 ENE 1030,2 - 0,0
16.01.2020 06:00:00 8,2 6,7 12 6 16 9 NE 1029,9 - 0,0
16.01.2020 05:00:00 8,0 6,8 13 7 18 10 NE 1029,7 - 0,0
16.01.2020 04:00:00 7,7 6,5 12 7 16 9 NE 1029,7 15 0,0
16.01.2020 03:00:00 7,9 6,8 9 5 13 7 ENE 1029,9 - 0,0
16.01.2020 02:00:00 8,8 6,9 3 2 13 7 N 1029,8 - 0,0
16.01.2020 01:00:00 10,4 8,2 8 4 12 6 WSW 1029,6 - 0,0
16.01.2020 00:00:00 9,3 6,6 2 1 6 4 S 1029,9 - 0,0
15.01.2020 23:00:00 8,9 7,5 0 0 4 2 N 1029,7 - 0,0
15.01.2020 22:00:00 9,9 7,5 3 2 8 4 SW 1029,4 - 0,0
15.01.2020 21:00:00 9,5 6,9 5 3 14 7 SSE 1029,5 - 0,0
15.01.2020 20:00:00 10,0 7,6 10 6 15 8 SE 1029,4 - 0,0
15.01.2020 19:00:00 8,7 5,6 10 5 13 7 ESE 1029,5 - 0,0
15.01.2020 18:00:00 9,6 5,8 7 4 11 6 E 1029,2 - 0,0
15.01.2020 17:00:00 11,4 6,3 8 4 14 7 E 1028,6 - 0,0
15.01.2020 16:00:00 13,8 6,9 9 5 16 9 ENE 1028,3 - 0,0
15.01.2020 15:00:00 14,5 6,6 11 6 22 12 ENE 1028,0 - 0,0
15.01.2020 14:00:00 14,8 7,6 12 6 25 13 E 1028,1 - 0,0
15.01.2020 13:00:00 14,3 7,3 14 8 25 13 ESE 1028,3 25 0,0
15.01.2020 12:00:00 14,2 7,5 16 9 25 13 ESE 1029,0 - 0,0
15.01.2020 11:00:00 13,4 7,4 15 8 22 12 ESE 1029,5 - 0,0
15.01.2020 10:00:00 12,7 9,3 10 5 16 8 E 1029,1 - 0,0
15.01.2020 09:00:00 9,6 7,7 12 6 19 10 ENE 1028,7 - 0,0
15.01.2020 08:00:00 7,9 6,8 14 8 20 11 NE 1028,5 - 0,2
15.01.2020 07:00:00 7,3 6,6 14 7 15 8 ENE 1028,1 - 0,0
15.01.2020 06:00:00 7,1 6,2 12 7 13 7 ENE 1028,0 - 0,0
15.01.2020 05:00:00 7,7 6,8 12 7 13 7 NE 1027,7 - 0,0
15.01.2020 04:00:00 8,5 6,6 8 5 11 6 ESE 1027,8 - 0,0
15.01.2020 03:00:00 8,6 7,4 10 6 13 7 E 1028,0 - 0,0
15.01.2020 02:00:00 8,6 7,2 10 5 11 6 E 1028,0 - 0,0
15.01.2020 01:00:00 8,7 7,3 11 6 13 7 E 1028,0 - 0,0
15.01.2020 00:00:00 8,1 6,1 11 6 14 7 ENE 1028,2 - 0,0
14.01.2020 23:00:00 8,5 6,5 10 5 15 8 NE 1027,9 - 0,0
14.01.2020 22:00:00 8,8 5,5 10 5 13 7 E 1027,8 - 0,0
14.01.2020 21:00:00 8,8 5,5 6 4 15 8 E 1027,8 - 0,0
14.01.2020 20:00:00 10,4 6,2 9 5 18 10 NW 1027,6 - 0,0
14.01.2020 19:00:00 11,2 6,3 11 6 20 11 WNW 1027,3 12 0,0
14.01.2020 18:00:00 11,9 6,2 15 8 32 17 WNW 1026,7 - 0,0
14.01.2020 17:00:00 12,7 5,8 15 8 36 20 W 1026,2 - 0,0
14.01.2020 16:00:00 12,7 7,2 16 8 41 22 W 1025,7 - 0,0
14.01.2020 15:00:00 13,3 6,9 19 10 46 25 W 1025,3 - 0,0
14.01.2020 14:00:00 13,1 7,3 15 8 42 23 WNW 1025,0 - 0,0
14.01.2020 13:00:00 13,2 7,4 12 6 - - WNW 1025,2 - -
14.01.2020 12:00:00 13,0 7,7 11 6 31 17 NW 1025,9 - 0,0
14.01.2020 11:00:00 12,8 7,5 11 6 36 19 NW 1026,6 - 0,0
14.01.2020 10:00:00 12,5 7,4 12 7 27 15 W 1026,6 - 0,0
14.01.2020 09:00:00 11,7 7,2 11 6 16 9 W 1026,1 - 0,0
14.01.2020 08:00:00 9,3 5,3 7 4 16 8 W 1025,7 - 0,0
14.01.2020 07:00:00 9,8 5,4 11 6 19 11 WNW 1025,6 25 0,0
14.01.2020 06:00:00 9,2 5,4 10 5 20 11 WNW 1025,1 - 0,0
14.01.2020 05:00:00 9,9 5,7 14 8 21 11 WNW 1024,9 - 0,0
14.01.2020 04:00:00 10,0 6,2 13 7 22 12 WNW 1024,9 - 0,0
14.01.2020 03:00:00 11,2 6,9 13 7 38 20 WNW 1025,0 - 0,0
14.01.2020 02:00:00 11,6 7,9 11 6 41 22 ESE 1024,6 - 0,0
14.01.2020 01:00:00 11,1 7,8 7 4 18 10 NNE 1024,8 - 0,0
14.01.2020 00:00:00 10,0 6,5 7 4 13 7 WNW 1025,1 - 0,0
13.01.2020 23:00:00 9,8 6,9 6 4 12 7 W 1025,4 - 0,0
13.01.2020 22:00:00 9,7 7,1 3 2 16 9 NNE 1025,2 - 0,0
13.01.2020 21:00:00 8,7 5,6 6 3 13 7 SE 1025,3 - 0,0
13.01.2020 20:00:00 9,7 6,0 8 4 16 9 SSE 1025,3 - 0,0
13.01.2020 19:00:00 8,7 5,8 8 4 11 6 ESE 1025,1 - 0,0
13.01.2020 18:00:00 9,6 5,8 6 4 10 5 E 1024,9 - 0,0
13.01.2020 17:00:00 11,4 6,1 5 3 12 7 SE 1024,4 - 0,0
13.01.2020 16:00:00 13,4 6,5 8 4 14 8 SE 1024,4 - 0,0
13.01.2020 15:00:00 13,7 6,5 9 5 16 9 SE 1024,4 - 0,0
13.01.2020 14:00:00 13,7 6,5 10 5 17 9 SE 1024,5 - 0,0
13.01.2020 13:00:00 13,9 7,6 8 5 20 11 SE 1025,2 - 0,0
13.01.2020 12:00:00 14,1 8,1 10 5 19 11 SE 1025,9 - 0,0
13.01.2020 11:00:00 13,7 8,7 13 7 21 11 SE 1026,3 - 0,0
13.01.2020 10:00:00 12,6 7,1 10 5 18 10 ENE 1026,5 - 0,0
13.01.2020 09:00:00 9,4 6,1 13 7 17 9 ENE 1026,2 - 0,0
13.01.2020 08:00:00 7,4 5,0 15 8 21 11 NE 1025,9 - 0,0
13.01.2020 07:00:00 7,0 5,5 16 9 21 12 NE 1025,7 17 0,0
13.01.2020 06:00:00 7,3 6,1 13 7 14 7 NNE 1025,6 - 0,0
13.01.2020 05:00:00 7,5 6,1 11 6 14 7 ENE 1025,4 - 0,2
13.01.2020 04:00:00 7,8 6,1 9 5 11 6 NE 1025,6 - 0,0
13.01.2020 03:00:00 8,2 6,0 4 2 8 4 NNW 1025,9 - 0,0
13.01.2020 02:00:00 9,2 7,0 3 2 5 3 NNE 1025,9 - 0,0
13.01.2020 01:00:00 8,6 6,7 6 3 7 4 NE 1026,3 - 0,0
13.01.2020 00:00:00 8,6 6,6 3 1 6 3 SW 1026,4 - 0,0
12.01.2020 23:00:00 8,5 6,3 3 2 7 4 ENE 1026,8 - 0,0
12.01.2020 22:00:00 8,5 6,1 3 2 8 4 E 1026,5 - 0,0
12.01.2020 21:00:00 9,1 6,2 4 2 8 4 E 1026,4 - 0,0
12.01.2020 20:00:00 9,5 6,4 4 2 8 4 ESE 1026,5 - 0,0
12.01.2020 19:00:00 10,3 6,8 4 2 9 5 N 1026,6 17 0,0
12.01.2020 18:00:00 10,9 6,0 2 1 7 4 SSW 1026,2 - 0,0
12.01.2020 17:00:00 12,5 6,1 4 2 11 6 SSW 1026,0 - 0,0
12.01.2020 16:00:00 14,0 5,9 6 4 15 8 SE 1025,7 - 0,0
12.01.2020 15:00:00 14,9 5,9 9 5 21 12 ENE 1025,5 - 0,0
12.01.2020 14:00:00 14,6 6,4 15 8 31 17 NE 1025,9 - 0,0
12.01.2020 13:00:00 14,1 7,2 22 12 44 24 ENE 1026,6 - 0,0
12.01.2020 12:00:00 13,8 7,1 29 16 48 26 ENE 1027,3 - 0,0
12.01.2020 11:00:00 12,9 6,5 27 15 48 26 NE 1027,7 - 0,0
12.01.2020 10:00:00 11,4 5,9 26 14 40 22 NE 1027,2 18 0,0
12.01.2020 09:00:00 10,9 6,4 24 13 43 23 NE 1026,8 - 0,0
12.01.2020 08:00:00 10,9 6,4 24 13 46 25 NE 1026,3 - 0,0
12.01.2020 07:00:00 10,9 6,4 23 12 59 32 NE 1025,9 15 0,0
12.01.2020 06:00:00 11,1 6,6 29 16 51 28 NE 1025,6 - 0,0
12.01.2020 05:00:00 11,2 6,3 25 14 50 27 NE 1025,4 - 0,0
12.01.2020 04:00:00 10,8 5,5 24 13 41 22 NE 1025,8 10 0,0
12.01.2020 03:00:00 10,5 4,8 27 14 51 27 NE 1025,9 - 0,0
12.01.2020 02:00:00 10,6 6,5 23 12 41 22 NE 1025,2 - 0,0

tt = Température de l'air
td = dewpoint
ff = Vitesse du vent
fx = gusts
dd = Direction du vent
ppp = reduced air pressure
vv = visibility
rr = Quantités de précipitations

stations d'obs. à proximité